Regional Weather Roundup
Issued by NWS Charleston, SC

Current Version | Previous Version | Graphics & Text | Print | Product List | Glossary On
Versions: 1 2 3 4 5 6 7 8 9 10 11 12 13 14 15 16 17 18 19 20 21 22 23 24 25 26 27 28 29 30 31 32 33 34 35 36 37 38 39 40 41 42 43 44 45 46 47 48 49 50
000
ASUS42 KCHS 160810
RWRCHS

REGIONAL WEATHER ROUNDUP
NATIONAL WEATHER SERVICE CHARLESTON SC
400 AM EDT WED APR 16 2014

NOTE: "FAIR" INDICATES FEW OR NO CLOUDS BELOW 12,000 FEET WITH NO
SIGNIFICANT WEATHER AND/OR OBSTRUCTIONS TO VISIBILITY.

NOT ALL STATIONS ARE QUALITY CONTROLLED BY THE NATIONAL
WEATHER SERVICE. USE DATA WITH CAUTION...ESPECIALLY
DEWPOINT OBSERVATIONS.

SCZ027-030-031-034>040-042>050-160900-
...SOUTH CAROLINA...

CITY           SKY/WX    TMP DP  RH WIND       PRES   REMARKS
N CHARLESTON   PTCLDY    46  33  60 N14       30.11R
WATERFRONT PRK   N/A     46 N/A N/A NW18        N/A
FORT JOHNSON   NOT AVBL
MOUNT PLEASANT FAIR     N/A N/A N/A N9        30.10R
JOHNS ISLAND   SUNNY     46  37  71 N10G21    30.11R
PINOPOLIS        N/A     46  36  66 N20       30.02R
MONCKS CORNER  FAIR      46  36  66 N12G21    30.12R
SUMMERVILLE    FAIR      43  32  65 N12       30.12R
BEAUFORT MCAS  CLEAR     49  35  58 E18       30.09R
BEAUFORT ARPT  FAIR      50  37  62 N17G23    30.09R
HILTON HEAD IS NOT AVBL
GEORGETOWN     NOT AVBL
WALTERBORO     SUNNY     45  32  61 N9        30.13R
ORANGEBURG     PTCLDY    43  27  53 NE14G20   30.15R
BARNWELL       FAIR      39  34  81 N8        30.14R WCI  34
AIKEN          FAIR      37  32  81 N7        30.17R WCI  32
MANNING        FAIR      43  27  52 N13       30.14R
KINGSTREE      NOT AVBL
COLUMBIA       PTCLDY    42  31  64 N6        30.17R
SUMTER         CLEAR     39  27  62 N13       30.15R WCI  31
FLORENCE       PTCLDY    40  29  64 N13       30.15R WCI  32
MYRTLE BEACH   CLEAR     43  30  61 N17       30.10R
N MYRTLE BEACH CLEAR     42  32  67 N12G20    30.09R

$$

GAZ063-065-086>088-099>101-113>116-118-119-134-136>141-150-160900-
...GEORGIA...

CITY           SKY/WX    TMP DP  RH WIND       PRES   REMARKS
SAVANNAH ARPT  CLEAR     46  37  71 N10       30.09R
HUNTER AAF     MOCLDY    47  38  72 N9        30.06R
FORT STEWART   CLEAR     44  37  79 N8        30.08R
STATESBORO     NOT AVBL
SYLVANIA       MOSUNNY   45  34  66 N12       30.12R
CLAXTON        FAIR      45  37  76 N6        30.11R
THOMSON        CLEAR     34  34 100 CALM      30.20R
AUGUSTA-BUSH   CLEAR     39  28  64 N9        30.16R WCI  33
AUGUSTA-DANIEL CLEAR     40  29  64 N9        30.16R WCI  34
SWAINSBORO     FAIR      37  34  87 N3        30.14R
VIDALIA        CLEAR     41  34  75 N8        30.12R
ALMA           CLEAR     42  33  70 N7        30.11R
WAYCROSS       NOT AVBL
JESUP          FAIR      43  36  75 N7        30.09S
BRUNSWICK      FAIR      45  36  70 N7G16     30.09R
SAINT SIMONS   CLEAR     47  36  65 NW12      30.07R

$$

SCZ027-028-034-036>038-045-046-048>050-GAZ119-141-160900-
...LAKE AND SUPPLEMENTAL COASTAL OBSERVATIONS...

STATION/POSITION TIME  TEMP    WIND        PRES    WAVE   SWELL
                       AIR SEA DIR/SP/G            HT/PER HT/PER/DIR
                 (UTC) (F)     (DEG/KT/KT) (MB)    (FT/S) (FT/S/D)
UPR LAKE MARION  NOT AVBL
WINYAH BAY       0700   46     330/  8     1017.0S
LAKE MURRAY      0700   40     360/  3/  7 1020.7R
ACE BASIN NERRS  0700   52      20/  5     1017.0S
FORT PULASKI     0800   49 61  330/ 13/ 17 1018.3R
SAPELO ISLAND    0700   47     320/ 13     1017.0S

$$

ANZ086-088-AMZ330-350-352-354-374-454-470-160900-
...C-MAN AND BUOY OBSERVATIONS...

STATION/POSITION TIME  TEMP    WIND        PRES    WAVE   SWELL
                       AIR SEA DIR/SP/G            HT/PER HT/PER/DIR
                 (UTC) (F)     (DEG/KT/KT) (MB)    (FT/S) (FT/S/D)
FOLLY BEACH CMAN 0800   47     360/ 17/ 21 1019.5R
BUOY 41004       NOT AVBL
BUOY 41008       0800   53 64  350/ 21/ 25 1016.9R   4/ 5   2/100/ 8
5E ST. MARYS GA  0700      65                N/A     4/ 5
FRYING PAN BUOY  0800   52 66   20/ 25/ 31 1015.7R   9/ 6
BUOY 41025       NOT AVBL
CAPE LOOKOUT NC  0800   45     350/ 26/ 31 1016.8R
BUOY 41002       NOT AVBL
BUOY 41010       0800   70 76  330/ 21/ 25 1013.3R   5/ 8   3/ 90/ 8
BUOY 41012       NOT AVBL
ST AUGUSTINE FL  0800   48     340/ 17/ 21 1018.0R


$$



USA.gov is the U.S. government's official web portal to all federal, state and local government web resources and services.